• In Hungary
  • List of Countries
  • For 7 days
  • Water Temperature
  • Satellite Maps
  • Weather Map
  • News
  • Weather Widgets
  • user-avatar
    Login

    Hourly Weather Preston

    Today, 24 February, Saturday

    Time Temperature Precipitation Wind Pressure Humidity
    00:00 -2°C° 0 mm 5 mps 763 mmHg 77%
    01:00 -2°C° 0 mm 5 mps 763 mmHg 78%
    02:00 -3°C° 0 mm 6 mps 763 mmHg 78%
    03:00 -3°C° 0 mm 6 mps 763 mmHg 79%
    04:00 -3°C° 0 mm 6 mps 763 mmHg 79%
    05:00 -3°C° 0 mm 6 mps 763 mmHg 79%
    06:00 -3°C° 0 mm 4 mps 764 mmHg 84%
    07:00 -2°C° 0 mm 4 mps 764 mmHg 79%
    08:00 -1°C° 0 mm 5 mps 765 mmHg 74%
    09:00 -2°C° 0 mm 6 mps 765 mmHg 69%
    10:00 -1°C° 0 mm 6 mps 765 mmHg 61%
    11:00 +2°C° 0 mm 6 mps 765 mmHg 54%
    12:00 +3°C° 0 mm 7 mps 765 mmHg 47%
    13:00 +3°C° 0 mm 7 mps 765 mmHg 46%
    14:00 +3°C° 0 mm 7 mps 765 mmHg 45%
    15:00 +4°C° 0 mm 7 mps 765 mmHg 43%
    16:00 +3°C° 0 mm 7 mps 765 mmHg 48%
    17:00 +2°C° 0 mm 6 mps 766 mmHg 53%
    18:00 +1°C° 0 mm 6 mps 766 mmHg 57%
    19:00 -1°C° 0 mm 6 mps 767 mmHg 61%
    20:00 -1°C° 0 mm 6 mps 767 mmHg 64%
    21:00 -2°C° 0 mm 7 mps 768 mmHg 68%
    22:00 -2°C° 0 mm 6 mps 768 mmHg 70%
    23:00 -2°C° 0 mm 6 mps 768 mmHg 73%

    Tomorrow, 25 February, Sunday

    Time Temperature Precipitation Wind Pressure Humidity
    00:00 -2°C° 0 mm 6 mps 769 mmHg 76%
    01:00 -2°C° 0 mm 6 mps 769 mmHg 76%
    02:00 -2°C° 0 mm 6 mps 769 mmHg 76%
    03:00 -2°C° 0 mm 6 mps 769 mmHg 77%
    04:00 -3°C° 0 mm 6 mps 769 mmHg 75%
    05:00 -3°C° 0 mm 6 mps 769 mmHg 74%
    06:00 -3°C° 0 mm 6 mps 770 mmHg 73%
    07:00 -3°C° 0 mm 6 mps 770 mmHg 70%
    08:00 -2°C° 0 mm 6 mps 770 mmHg 67%
    09:00 -2°C° 0 mm 7 mps 770 mmHg 63%
    10:00 -1°C° 0 mm 7 mps 771 mmHg 59%
    11:00 0°C° 0 mm 7 mps 771 mmHg 55%
    12:00 +2°C° 0 mm 7 mps 771 mmHg 52%
    13:00 +2°C° 0 mm 7 mps 771 mmHg 51%
    14:00 +2°C° 0 mm 7 mps 770 mmHg 50%
    15:00 +2°C° 0 mm 6 mps 770 mmHg 50%
    16:00 +1°C° 0 mm 6 mps 771 mmHg 53%
    17:00 -1°C° 0 mm 6 mps 771 mmHg 56%
    18:00 -2°C° 0 mm 6 mps 771 mmHg 60%
    19:00 -2°C° 0 mm 6 mps 772 mmHg 61%
    20:00 -3°C° 0 mm 6 mps 772 mmHg 63%
    21:00 -3°C° 0 mm 6 mps 773 mmHg 65%
    22:00 -3°C° 0 mm 6 mps 773 mmHg 68%
    23:00 -3°C° 0 mm 6 mps 773 mmHg 71%

    Day after tomorrow, 26 February, Monday

    Time Temperature Precipitation Wind Pressure Humidity
    00:00 -4°C° 0 mm 5 mps 773 mmHg 74%
    01:00 -4°C° 0 mm 5 mps 773 mmHg 75%
    02:00 -2°C° 0 mm 5 mps 773 mmHg 75%
    03:00 -2°C° 0 mm 5 mps 774 mmHg 76%
    04:00 -4°C° 0 mm 5 mps 774 mmHg 74%
    05:00 -4°C° 0 mm 5 mps 774 mmHg 73%
    06:00 -4°C° 0 mm 5 mps 774 mmHg 72%
    07:00 -2°C° 0 mm 5 mps 774 mmHg 67%
    08:00 -3°C° 0 mm 6 mps 774 mmHg 62%
    09:00 -2°C° 0 mm 7 mps 774 mmHg 57%
    10:00 -2°C° 0 mm 7 mps 774 mmHg 53%
    11:00 -1°C° 0 mm 7 mps 774 mmHg 50%
    12:00 0°C° 0 mm 7 mps 774 mmHg 46%
    13:00 -1°C° 0 mm 7 mps 774 mmHg 47%
    14:00 -1°C° 0 mm 7 mps 774 mmHg 47%
    15:00 -1°C° 0 mm 7 mps 774 mmHg 47%
    16:00 -1°C° 0 mm 6 mps 774 mmHg 52%
    17:00 -2°C° 0 mm 6 mps 774 mmHg 56%
    18:00 -2°C° 0 mm 5 mps 774 mmHg 60%
    19:00 -2°C° 0 mm 5 mps 774 mmHg 63%
    20:00 -4°C° 0 mm 5 mps 774 mmHg 66%
    21:00 -4°C° 0 mm 5 mps 774 mmHg 69%
    22:00 -3°C° 0.1 mm 4 mps 773 mmHg 72%
    23:00 -3°C° 0.1 mm 4 mps 773 mmHg 75%

    27 February, Tuesday

    Time Temperature Precipitation Wind Pressure Humidity
    00:00 -2°C° 0.1 mm 3 mps 773 mmHg 79%
    01:00 -1°C° 0.4 mm 3 mps 772 mmHg 82%
    02:00 -2°C° 0.4 mm 4 mps 771 mmHg 85%
    03:00 -2°C° 0.4 mm 4 mps 771 mmHg 89%
    04:00 -2°C° 0.2 mm 4 mps 770 mmHg 89%
    05:00 -3°C° 0.2 mm 4 mps 770 mmHg 89%
    06:00 -2°C° 0.2 mm 3 mps 770 mmHg 89%
    07:00 -3°C° 0 mm 4 mps 769 mmHg 84%
    08:00 -2°C° 0 mm 4 mps 769 mmHg 79%
    09:00 -2°C° 0 mm 5 mps 769 mmHg 74%
    10:00 -2°C° 0 mm 5 mps 769 mmHg 69%
    11:00 -2°C° 0 mm 6 mps 769 mmHg 65%
    12:00 -2°C° 0 mm 6 mps 768 mmHg 60%
    13:00 -2°C° 0.1 mm 6 mps 768 mmHg 60%
    14:00 -2°C° 0.1 mm 6 mps 768 mmHg 61%
    15:00 -2°C° 0.1 mm 6 mps 767 mmHg 61%
    16:00 -3°C° 0.1 mm 6 mps 767 mmHg 65%
    17:00 -3°C° 0.1 mm 6 mps 767 mmHg 69%
    18:00 -4°C° 0.1 mm 5 mps 767 mmHg 73%
    19:00 -4°C° 0.1 mm 5 mps 767 mmHg 74%
    20:00 -5°C° 0.1 mm 6 mps 766 mmHg 76%
    21:00 -5°C° 0.1 mm 6 mps 766 mmHg 77%
    22:00 -5°C° 0.2 mm 6 mps 766 mmHg 77%
    23:00 -5°C° 0.2 mm 6 mps 766 mmHg 76%

    28 February, Wednesday

    Time Temperature Precipitation Wind Pressure Humidity
    00:00 -5°C° 0.2 mm 6 mps 766 mmHg 76%
    01:00 -6°C° 0.1 mm 6 mps 765 mmHg 75%
    02:00 -6°C° 0.1 mm 6 mps 765 mmHg 74%
    03:00 -8°C° 0.1 mm 6 mps 764 mmHg 73%
    04:00 -8°C° 0 mm 6 mps 764 mmHg 73%
    05:00 -8°C° 0 mm 6 mps 764 mmHg 74%
    06:00 -8°C° 0 mm 6 mps 763 mmHg 74%
    07:00 -8°C° 0.1 mm 7 mps 763 mmHg 74%
    08:00 -7°C° 0.1 mm 8 mps 763 mmHg 75%
    09:00 -8°C° 0.1 mm 9 mps 762 mmHg 75%
    10:00 -6°C° 0.2 mm 9 mps 762 mmHg 73%
    11:00 -6°C° 0.2 mm 9 mps 762 mmHg 71%
    12:00 -5°C° 0.2 mm 9 mps 761 mmHg 69%
    13:00 -5°C° 0.2 mm 8 mps 761 mmHg 69%
    14:00 -5°C° 0.2 mm 8 mps 761 mmHg 69%
    15:00 -5°C° 0.2 mm 8 mps 761 mmHg 69%
    16:00 -6°C° 0.2 mm 8 mps 761 mmHg 70%
    17:00 -7°C° 0.2 mm 8 mps 761 mmHg 71%
    18:00 -9°C° 0.2 mm 9 mps 762 mmHg 72%
    19:00 -8°C° 0 mm 8 mps 762 mmHg 74%
    20:00 -8°C° 0 mm 8 mps 762 mmHg 76%
    21:00 -9°C° 0 mm 7 mps 762 mmHg 79%
    22:00 -8°C° 0.2 mm 8 mps 761 mmHg 79%
    23:00 -8°C° 0.2 mm 8 mps 761 mmHg 79%

    1 March, Thursday

    Time Temperature Precipitation Wind Pressure Humidity
    00:00 -8°C° 0.2 mm 8 mps 761 mmHg 79%
    01:00 -8°C° 0.1 mm 8 mps 760 mmHg 80%
    02:00 -8°C° 0.1 mm 8 mps 759 mmHg 80%
    03:00 -8°C° 0.1 mm 7 mps 759 mmHg 80%
    04:00 -8°C° 0 mm 8 mps 758 mmHg 80%
    05:00 -8°C° 0 mm 8 mps 758 mmHg 80%
    06:00 -8°C° 0 mm 8 mps 757 mmHg 79%
    07:00 -9°C° 0 mm 9 mps 757 mmHg 78%
    08:00 -8°C° 0 mm 10 mps 756 mmHg 76%
    09:00 -8°C° 0 mm 11 mps 756 mmHg 74%
    10:00 -7°C° 0 mm 11 mps 755 mmHg 73%
    11:00 -7°C° 0 mm 12 mps 755 mmHg 72%
    12:00 -6°C° 0 mm 12 mps 754 mmHg 71%
    13:00 -6°C° 0 mm 12 mps 754 mmHg 71%
    14:00 -6°C° 0 mm 12 mps 753 mmHg 71%
    15:00 -6°C° 0 mm 13 mps 752 mmHg 72%
    16:00 -6°C° 0 mm 13 mps 752 mmHg 73%
    17:00 -6°C° 0 mm 13 mps 752 mmHg 74%
    18:00 -6°C° 0 mm 13 mps 751 mmHg 75%
    19:00 -6°C° 0 mm 13 mps 751 mmHg 75%
    20:00 -6°C° 0 mm 14 mps 750 mmHg 75%
    21:00 -6°C° 0 mm 14 mps 750 mmHg 76%
    22:00 -6°C° 0.2 mm 14 mps 749 mmHg 77%
    23:00 -6°C° 0.2 mm 14 mps 749 mmHg 78%
    Show more